Probability
25 23 25 25 16 8 4 4 5 5 4 3 2 2 2 1 0 0 0 0 0 0 0 0 0 0 0 1 1 2 2 4 4 2 0 0 0 0 0 0 0 0 0
16 14 14 11 7 3 2 2 2 3 3 2 1 1 1 0 0 0 0 0 0 0 0 0 0 0 0 1 1 2 2 4 5 4 2 1 0 0 0 0 0 0 0
8 7 4 2 0 0 0 0 1 1 1 1 0 0 0 0 0 0 0 0 0 0 0 0 0 0 0 1 4 8 8 5 5 6 4 2 1 0 0 0 0 0 0
6 4 2 0 0 0 0 0 0 0 0 0 0 0 0 0 0 0 0 0 0 0 0 0 0 0 0 1 8 18 20 13 8 7 5 3 3 1 0 0 0 0 0
5 3 1 0 0 0 0 0 0 0 0 0 0 0 0 0 0 0 0 0 0 0 0 0 0 0 0 1 8 21 29 26 20 14 7 4 4 3 1 0 0 0 0
4 3 2 1 0 0 0 0 0 0 0 0 0 0 0 0 0 0 0 0 0 0 0 0 0 0 0 0 5 17 28 34 35 28 17 9 6 4 2 1 1 0 0
3 3 2 1 0 0 0 0 0 0 0 0 0 0 0 0 0 0 0 0 0 0 0 0 0 0 0 0 3 12 22 34 44 46 38 26 17 9 5 4 2 1 0
2 2 1 1 0 0 0 0 0 0 0 0 0 0 0 0 0 0 0 0 0 0 0 0 0 0 0 0 2 6 14 28 46 59 56 44 30 19 12 9 6 3 1
2 2 1 0 0 0 0 0 0 0 0 0 0 0 0 0 0 0 0 0 0 0 0 0 0 0 0 1 1 1 6 17 36 54 59 48 33 20 13 11 10 6 3
1 1 0 0 0 0 0 0 0 0 0 0 0 0 0 0 0 0 0 0 0 0 0 0 0 0 0 0 0 0 2 6 16 32 44 41 28 15 9 10 12 11 7
0 0 0 0 0 0 0 0 0 0 0 0 0 0 0 0 0 0 0 0 0 0 0 0 0 0 0 0 0 0 0 1 3 10 21 27 23 15 9 9 13 15 14
0 0 0 0 0 0 0 0 0 0 0 0 0 0 0 0 0 0 0 0 0 0 0 0 0 0 0 0 0 0 0 0 0 1 5 9 13 13 9 8 13 18 20
0 0 0 0 0 0 0 0 0 0 0 0 0 0 0 0 0 0 0 0 0 0 0 0 0 0 0 0 0 0 0 0 0 0 0 1 3 5 4 5 9 14 16
0 0 0 0 0 0 0 0 0 0 0 0 0 0 0 0 0 0 0 0 0 0 0 0 0 0 0 0 0 0 0 0 0 0 0 0 0 0 0 1 3 5 6
0 0 0 0 0 0 0 0 0 0 0 0 0 0 0 0 0 0 0 0 0 0 0 0 0 0 1 0 0 0 0 0 0 0 0 0 0 0 0 0 0 0 0
0 0 0 0 0 0 0 0 0 0 0 0 0 0 0 0 0 0 0 0 0 0 0 0 0 0 0 0 0 0 0 0 0 0 0 0 0 0 0 0 0 0 0
0 0 0 0 0 0 0 0 0 0 0 0 0 0 0 0 0 0 0 0 0 0 0 0 0 0 0 0 0 0 0 0 0 0 0 0 0 0 0 0 0 0 0
0 0 0 0 0 0 0 0 0 0 0 0 0 0 0 0 0 0 0 0 0 0 0 0 0 0 0 0 0 0 0 0 0 0 0 0 0 0 0 0 0 0 0
0 0 0 0 0 0 0 0 0 0 0 0 0 0 0 0 0 0 0 0 0 0 0 0 0 0 0 0 0 0 0 0 0 0 0 0 0 0 0 0 0 0 0
0 0 0 0 0 0 0 0 0 0 0 0 0 0 0 0 0 0 0 0 0 0 0 0 0 0 0 0 0 0 0 0 0 0 0 0 0 0 0 0 0 0 0
0 0 0 0 0 0 0 0 0 0 0 0 0 0 0 0 0 0 0 0 0 0 0 0 0 0 0 0 0 0 0 0 0 0 0 0 0 0 0 0 0 0 0
0 0 0 0 0 0 0 0 0 0 0 0 0 0 0 0 0 0 0 0 0 0 0 0 0 0 0 0 0 0 0 0 0 0 0 0 0 0 0 0 0 0 0
0 0 0 0 0 0 0 0 0 0 0 0 0 0 0 0 0 0 0 0 0 0 0 0 0 0 0 0 0 0 0 0 0 0 0 0 0 0 0 0 0 0 0
0 0 0 0 0 0 0 0 0 0 0 0 0 0 0 0 0 0 0 0 0 0 0 0 0 0 0 0 0 0 0 0 0 0 0 0 0 0 0 0 0 0 0
0 0 0 0 0 0 0 0 0 0 0 0 0 0 0 0 0 0 0 0 0 0 0 0 0 0 0 0 0 0 0 0 0 0 0 0 0 0 0 0 0 0 0
0 0 0 0 0 0 0 0 0 0 0 0 0 0 0 0 0 0 0 0 0 0 0 0 0 0 0 0 0 0 0 0 0 0 0 0 0 0 0 0 0 0 0
Wind_Speed
6 6 5 5 6 5 6 5 6 7 6 7 7 9 9 9 9 7 6 14 14 14 14 14 14 14 16 17 19 20 20 20 20 19 18 17 16 17 17 16 15 14 14
6 6 5 5 5 5 5 5 5 4 4 4 6 6 7 7 7 7 6 8 12 12 12 13 14 15 16 16 17 18 18 19 20 20 19 18 17 16 17 18 17 16 15
7 6 5 5 5 4 4 3 3 2 2 3 4 5 4 5 5 6 6 5 6 10 13 14 14 14 14 15 15 15 16 18 19 20 20 20 19 17 17 18 18 17 16
7 6 4 4 3 2 3 3 2 2 2 3 3 3 3 4 6 6 6 6 5 5 9 14 14 14 14 15 16 16 15 16 18 19 20 21 20 19 18 18 19 19 18
7 5 4 3 3 3 3 2 2 2 3 3 3 3 4 4 5 6 6 7 7 7 7 9 14 14 15 15 15 15 15 16 17 18 20 21 21 20 20 19 19 19 19
7 6 4 4 4 3 3 2 3 2 2 3 3 3 3 5 5 5 6 6 6 7 7 8 7 9 14 14 13 13 15 15 16 17 19 20 21 21 20 20 20 19 19
7 7 5 5 4 4 4 4 3 3 2 1 1 2 3 4 5 5 5 4 5 5 5 6 6 6 6 11 12 13 15 16 15 16 17 19 20 20 21 21 20 20 19
6 7 7 6 5 4 4 4 3 2 2 2 2 1 2 3 2 2 2 2 2 2 3 4 5 6 6 5 7 12 13 15 15 15 15 17 17 18 20 21 20 20 20
5 5 7 6 6 6 6 6 5 5 3 2 2 3 3 3 2 2 1 1 2 2 3 4 5 5 6 6 6 9 13 12 13 13 13 14 15 15 17 19 19 19 19
4 4 4 6 7 6 6 6 6 4 4 3 2 3 2 2 2 2 2 2 3 4 4 4 5 5 5 5 7 9 11 10 11 12 12 12 14 15 15 16 17 18 19
5 5 3 3 5 6 7 8 7 6 5 5 4 3 2 2 2 2 3 3 3 4 5 6 5 4 4 5 5 8 10 10 10 11 11 12 14 15 16 15 15 16 17
4 6 6 4 3 4 6 8 9 10 7 6 5 4 4 3 3 3 3 3 4 4 5 5 4 3 3 3 5 8 10 10 10 10 10 11 12 13 15 14 14 14 15
2 3 4 4 4 4 5 6 8 9 9 8 7 5 5 4 3 3 3 3 3 3 4 3 2 3 2 2 2 5 5 8 9 10 10 9 9 10 12 13 13 13 13
3 3 3 3 4 5 5 5 6 7 8 9 8 7 5 5 5 5 4 3 2 2 2 4 2 2 2 3 3 4 3 3 4 6 7 7 7 8 8 9 9 9 10
4 4 3 3 3 3 4 5 4 6 6 8 8 8 6 5 5 5 5 4 3 2 2 2 2 1 2 2 3 3 3 5 5 4 5 7 10 11 11 10 10 9 8
6 5 5 4 4 3 3 3 5 5 6 6 6 7 7 5 5 5 5 5 5 4 3 2 2 2 0 1 4 4 6 9 10 10 11 12 13 13 13 13 13 12 12
7 7 6 5 5 5 4 4 4 5 6 6 6 7 8 7 5 5 5 5 6 5 6 3 2 2 2 2 3 4 5 6 7 12 13 14 14 15 15 15 14 14 14
9 8 7 6 6 6 5 6 6 5 6 5 5 7 8 7 8 6 5 6 6 7 6 5 2 2 2 3 4 5 5 6 7 13 15 15 15 15 15 15 15 14 14
10 9 8 8 8 7 7 6 6 6 7 6 5 6 7 7 8 6 7 7 6 5 6 4 3 2 2 3 4 5 7 7 7 11 14 14 14 15 15 15 14 13 13
10 10 10 9 9 8 8 8 7 7 7 7 6 6 6 7 8 7 7 8 6 6 6 5 5 4 3 3 5 5 6 5 6 7 10 11 14 15 15 14 14 14 13
11 10 9 9 9 7 8 9 8 8 7 7 7 7 7 9 10 8 6 7 7 7 6 6 6 5 4 5 6 4 7 7 6 5 7 6 7 8 9 12 14 15 15
10 9 10 10 9 8 11 14 10 7 7 7 6 6 6 8 10 12 13 12 11 10 9 7 7 7 7 6 6 8 9 8 5 3 6 6 5 7 6 7 10 13 14
9 9 10 10 10 11 13 13 13 8 7 7 7 6 5 6 8 8 9 11 14 15 13 9 9 9 9 9 11 12 9 5 6 8 8 7 5 7 6 7 12 12 12
7 8 9 9 9 10 12 13 11 7 6 7 8 8 7 7 7 8 7 7 8 10 12 10 9 8 8 11 13 11 11 10 10 4 4 6 4 5 5 6 10 11 11
7 7 6 7 7 8 10 10 7 4 5 7 7 8 8 8 10 10 8 8 8 6 7 10 10 9 12 16 16 13 13 13 11 4 2 5 4 4 4 4 6 9 9
9 7 6 5 5 6 8 8 6 3 4 5 6 6 9 9 9 9 9 9 10 8 7 6 7 10 13 18 20 16 15 14 13 6 3 4 5 5 4 2 3 4 6
Wind_Direction
230 230 231 231 230 230 235 239 243 233 230 239 243 242 236 232 233 233 244 255 262 266 261 255 249 248 241 232 223 218 214 210 207 209 215 218 215 206 200 201 203 202 199
232 233 232 231 235 232 233 230 231 212 205 213 231 236 235 232 232 237 243 257 262 268 269 264 261 257 247 237 231 226 220 215 210 209 211 216 216 212 205 202 204 206 204
230 227 225 226 229 223 218 209 204 178 185 204 230 236 235 234 236 243 248 250 259 266 267 266 263 261 254 244 237 233 228 219 212 210 212 214 214 212 209 206 204 206 207
220 214 214 224 219 198 188 182 171 169 192 204 225 240 240 244 247 248 250 250 249 255 261 261 260 256 254 250 242 237 233 224 217 213 213 214 213 211 210 210 208 206 206
210 197 201 209 192 182 183 180 180 177 192 208 225 236 240 241 247 250 251 254 250 248 250 256 259 257 255 252 245 237 234 228 221 217 215 215 214 211 209 210 211 209 207
202 188 190 192 178 174 186 188 192 193 202 207 231 250 258 258 260 257 258 262 260 258 256 255 255 254 251 248 245 239 236 232 224 220 218 217 215 213 210 210 209 210 208
201 189 187 185 179 187 195 185 175 189 206 164 165 291 292 270 261 257 256 259 268 273 270 264 255 246 245 242 240 239 240 240 233 223 217 216 217 215 213 211 209 207 207
210 199 194 189 185 184 186 183 173 175 196 172 168 188 298 320 297 259 253 255 269 290 295 289 274 254 244 239 237 237 240 241 239 232 221 216 215 215 214 212 210 207 206
251 221 204 193 187 183 188 190 183 176 186 199 196 174 189 236 295 310 280 274 280 293 298 296 291 272 252 240 241 237 236 235 236 235 226 216 212 212 211 211 210 207 207
303 268 238 212 196 189 188 190 188 181 166 185 209 218 212 190 199 305 316 313 302 291 291 287 289 283 262 245 239 235 235 232 233 238 234 220 211 209 210 211 211 209 209
356 352 320 258 222 205 198 187 181 187 182 177 183 183 198 208 200 208 280 313 313 285 276 278 279 278 271 256 252 249 246 240 236 236 237 230 217 207 205 207 213 215 216
350 3 357 338 286 244 217 201 190 188 191 184 185 181 176 178 186 193 234 278 295 287 283 279 275 285 291 280 269 265 258 251 246 240 237 233 223 210 204 205 211 218 221
313 327 345 342 329 294 255 224 202 194 190 189 191 193 194 198 180 175 206 257 282 291 303 303 311 325 334 345 332 318 286 265 250 241 233 227 215 205 202 204 208 212 218
265 274 282 291 308 317 299 245 223 209 196 195 196 194 196 208 196 186 187 201 266 275 281 292 321 347 15 19 20 18 6 335 263 234 220 203 180 165 164 170 179 187 201
251 258 265 272 272 284 304 297 249 228 211 205 201 199 202 210 204 204 198 194 218 265 284 284 298 338 40 39 22 36 49 62 75 97 122 127 124 122 122 122 125 129 139
243 251 256 257 259 247 232 268 283 259 232 223 210 205 210 213 211 206 202 201 207 223 251 253 265 289 323 86 57 61 76 79 80 90 97 102 104 106 107 109 110 111 111
240 235 235 240 248 247 229 216 232 273 258 241 225 218 223 214 212 212 206 200 205 210 241 256 253 266 224 154 104 84 81 82 84 87 92 95 97 99 100 100 99 98 97
242 232 224 225 235 241 231 223 222 227 249 258 249 234 235 225 221 219 213 212 207 206 221 250 248 246 226 168 130 104 85 84 85 86 88 91 92 93 94 93 92 91 91
240 233 220 221 228 233 234 232 228 225 229 236 240 243 244 231 228 223 219 218 211 203 208 226 242 242 221 151 130 106 95 88 84 85 82 83 88 90 91 92 93 92 93
235 230 223 223 226 228 232 233 229 231 232 233 226 224 235 236 233 231 224 220 207 199 202 219 234 234 215 153 144 133 114 94 87 84 83 86 92 92 95 99 102 101 98
240 232 226 226 227 224 229 226 224 225 227 234 230 219 222 232 237 237 229 218 201 200 201 213 223 219 200 171 159 137 126 112 89 90 96 86 91 90 90 97 101 105 102
249 234 227 224 221 223 228 224 216 215 216 223 233 233 232 240 244 243 239 224 204 199 201 206 215 216 200 168 149 145 141 137 123 126 103 87 88 87 82 90 97 102 103
259 242 234 224 219 223 227 229 225 218 218 219 223 230 244 248 248 253 249 233 216 207 199 199 212 213 192 169 156 157 158 141 127 145 125 103 94 87 79 83 95 101 107
267 252 239 226 218 222 220 225 228 221 226 230 226 222 230 251 258 256 252 232 216 210 208 211 220 214 191 171 161 151 138 114 102 100 104 111 111 96 88 82 90 102 112
268 256 244 225 215 224 220 223 219 201 227 242 239 228 224 241 257 252 240 222 208 208 210 214 215 200 170 155 146 138 138 133 130 122 92 106 122 107 93 82 77 91 113
266 258 246 226 217 230 230 228 214 191 228 247 249 236 228 234 253 249 230 214 204 195 181 179 177 162 155 151 151 152 148 144 139 136 160 122 143 131 110 98 95 93 99